Powrót do katalogu

STARLINK-31467

AktywnyŁącznośćVLEO
NORAD 59235·PAYLOAD·🇺🇸 United States

Wystrzelony Mar 16, 2024 z Cape Canaveral Space Force Station

Loading…

Następne Przeloty (najbliższe 24 godziny)

TLE

ŚwieżeSource: CelesTrak SupGP

Epoka: Sep 14, 2026, 20:51 UTC

1 59235C 24049E   26257.86923611 -.00017879  00000+0 -64768-3 0  2575
2 59235  43.0019 155.1242 0001431 267.1077 285.9141 15.27581841    15

Śledź STARLINK-31467 w czasie rzeczywistym z AllMySat

Download on the App Store